Content
SEND FEEDBACK

Daily
Averages
Monthly
Summary
United Kingdom

CRANBROOK, ENGLAND


Home > Europe > United Kingdom > England
Elevation: 305 feet     Latitude: 51 16N     Longitude: 000 24E

WEATHER
 
SELECT A DAY
Number of Records: 139,783;   Date Range: 7/1/96 - 7/27/14
 
SHARE

PRINT THIS DATA

[ ← Previous Day ]
WEATHER ALMANAC - JULY 2, 2014
[ Next Day → ]
[ °C ]   °F
Weather ElementAverageHighLow
Temperature66.9 °F71.6 °F (2:50 pm)59 °F (7:50 am)
Dewpoint46.5 °F53.6 °F (6:50 pm)42.8 °F (1:50 pm)
Humidity48.9 %68 % (8:20 pm)35 % (2:50 pm)
Barometer30.21 in30.24 in (8:50 am)30.18 in (4:20 pm)
Wind Speed5.5 mph12.7 mph (6:50 pm)
Weather ElementAverage
Visibility6.2 mi
Wind DirectionESE (112.3 °)

Weather ElementTotal
Precipitation---
Cooling Degree Days0.3 (Base 65)
Growing Degree Days15.3 (Base 50)
Averaged from 26 records on July 2, 2014
WEATHER CONDITIONS BREAKOUT
WIND DIRECTION BREAKOUT
WEATHER BY HOUR - JULY 2, 2014
[ °C ]   °F
Local TimeTemperatureDewpointHumidityBarometerVisibilityWind DirectionWind SpeedGust SpeedPrecipitationEventsConditions
7:50 AM59.0 °F48.2 °F67 %30.21 inEast (80°)4.6 mphClear
8:20 AM60.8 °F46.4 °F59 %30.21 inENE (70°)3.5 mphClear
8:50 AM60.8 °F44.6 °F55 %30.24 inESE (110°)3.5 mphClear
9:20 AM62.6 °F46.4 °F55 %30.21 inEast (80°)3.5 mphClear
9:50 AM62.6 °F48.2 °F59 %30.21 in6.2 miESE (110°)3.5 mphPartly Cloudy
10:20 AM64.4 °F46.4 °F52 %30.21 in6.2 miVariable4.6 mphPartly Cloudy
10:50 AM64.4 °F46.4 °F52 %30.24 in6.2 miNE (40°)5.8 mphPartly Cloudy
11:20 AM64.4 °F46.4 °F52 %30.24 in6.2 miNE (40°)3.5 mphScattered Clouds
11:50 AM68.0 °F46.4 °F46 %30.24 in6.2 miENE (70°)3.5 mphScattered Clouds
12:20 PM66.2 °F44.6 °F46 %30.21 in6.2 miNNE (20°)3.5 mphPartly Cloudy
12:50 PM69.8 °F44.6 °F40 %30.24 in6.2 miESE (120°)3.5 mphPartly Cloudy
1:20 PM69.8 °F44.6 °F40 %30.24 in6.2 miVariable4.6 mphScattered Clouds
1:50 PM69.8 °F42.8 °F38 %30.21 inESE (110°)3.5 mphClear
2:20 PM68.0 °F44.6 °F43 %30.21 inWest (270°)3.5 mphClear
2:50 PM71.6 °F42.8 °F35 %30.21 inNE (40°)2.3 mphClear
3:20 PM71.6 °F42.8 °F35 %30.21 inVariable4.6 mphClear
3:50 PM71.6 °F42.8 °F35 %30.21 inSE (140°)4.6 mphClear
4:20 PM71.6 °F42.8 °F35 %30.18 inWSW (250°)3.5 mphClear
4:50 PM71.6 °F44.6 °F38 %30.18 inVariable4.6 mphClear
5:20 PM71.6 °F44.6 °F38 %30.18 inSouth (180°)5.8 mphClear
5:50 PM69.8 °F46.4 °F43 %30.18 inSouth (180°)5.8 mphClear
6:20 PM69.8 °F50.0 °F49 %30.18 inSSW (200°)8.1 mphClear
6:50 PM66.2 °F53.6 °F64 %30.18 inSSW (200°)12.7 mphClear
7:20 PM66.2 °F53.6 °F64 %30.21 inSSW (210°)10.4 mphClear
7:50 PM64.4 °F51.8 °F64 %30.21 inSSW (200°)12.7 mphClear
8:20 PM62.6 °F51.8 °F68 %30.21 inSSW (200°)12.7 mphClear
Hourly data recorded from EGKB, located miles away from Cranbrook, England







STORIES FROM OUR PARTNERS